Weather in Yaman

Russia / Omsk Oblast     56°02′38″N   71°23′44″E
temp.,
°C
wind,
m/s
gust,
m/s
humid.,
%
clouds,
%
prec.,
mm/h
press.,
hPa
HPBL,
m
6 march, sat
sat600:00−2sw61296100 0.2 1003512
03:00−3ssw81495100 1.3 1000754
06:00−1sw101792100 2.3 998797
09:00−2w10158895 0.1 997858
12:00−5w10148697 0.2 1002936
15:00−6w8128598 0.0 1005805
18:00−9wsw6128364 0.1 1007454
21:00−12wsw612920 0.0 1009214
7 march, sun
sun700:00−13wsw511940 0.0 1011192
03:00−14sw611948 0.0 1011176
06:00−16sw59954 0.0 1014147
09:00−16sw48960 0.0 1014115
12:00−11sw359250 0.0 1016251
15:00−8s3591100 0.0 1015340
18:00−8se5889100 0.0 1012320
21:00−8se81494100 1.2 1006534
8 march, mon
mon800:000s81698100 3.6 1000751
03:000ssw111897100 1.0 995977
06:00−7wsw111687100 2.5 997643
09:00−12w81491100 0.0 1002452
12:00−10w71290100 0.1 1007593
15:00−9w71084100 0.0 1010792
18:00−11wsw6118599 0.0 1012477
21:00−13sw61189100 0.0 1013332
9 march, tue
tue900:00−13ssw61292100 0.1 1014380
03:00−13ssw6129286 0.1 1013329
06:00−14ssw6129392 0.1 1012276
09:00−14ssw61394100 0.0 1011327
12:00−10ssw71292100 0.1 1010502
15:00−7ssw81392100 0.1 1008669
18:00−5sw71294100 0.7 1007804
21:00−6wsw61294100 0.7 1007654
10 march, wed
wed1000:00−9sw5119492 0.7 1009244
03:00−11sw469679 0.0 101096
06:00−12wsw459688 0.0 101177
09:00−12sw4792100 0.0 1010134
12:00−9sw4690100 0.0 1010284
15:00−7wsw3488100 0.0 1010443
18:00−8w2292100 0.0 100828
21:00−12w3395100 0.0 100821